Погода в Ергаче

Россия / Пермский край     57°29′08″N   56°42′50″E
темп.,
°C
ветер,
м/с
пор.,
м/с
влажн.,
%
обл.,
%
осадки,
мм/ч
давл.,
гПа
погр.,
м
16 мая, вс
вс1623:00+18ююв347967 4.3 101853
02:00+16ююв338218 0.0 101833
05:00+16юз3575100 0.0 101871
08:00+20юз4106326 0.0 1018321
11:00+26юз69385 0.0 1018837
14:00+29юз79295 0.0 10182656
17:00+29юз79353 0.0 10172510
20:00+24ююз614475 0.0 1016397
17 мая, пн
пн1723:00+20юз485943 0.0 1016120
02:00+18юз486113 0.0 1016124
05:00+16ююз476590 0.0 1017102
08:00+20зюз411605 0.0 1017396
11:00+24зюз5748100 0.1 1017861
14:00+27зюз8123715 0.0 10162448
17:00+27зюз7114015 0.0 10152827
20:00+23з485253 0.0 1015182
18 мая, вт
вт1823:00+18з346013 0.1 101650
02:00+16з4107288 0.0 1017201
05:00+15зсз337810 0.0 101835
08:00+18сз47615 0.0 1019474
11:00+21сз684610 0.0 10191246
14:00+23сз574098 0.0 10191904
17:00+23сз57397 0.0 10192193
20:00+19ссв59605 0.0 1020490
19 мая, ср
ср1923:00+13св37800 0.0 1023152
02:00+11в48890 0.0 1024223
05:00+9в38895 0.0 1025240
08:00+11в577545 0.0 1026435
11:00+16вюв445545 0.0 1025878
14:00+20вюв3443100 0.0 10241198
17:00+22юв3439100 0.0 10241273
20:00+19вюв2354100 0.0 102335
20 мая, чт
чт2023:00+14ююв22625 0.0 102319
02:00+12ююв33645 0.0 102324
05:00+10ююв337111 0.0 102346
08:00+16ююз49645 0.0 1023327
11:00+22ююз6846100 0.0 1022817
14:00+24ююз7940100 0.0 10211261
17:00+24ююз69401 0.0 10201547
20:00+20ююз61254100 0.0 1019480